Tracking 19576 objects as of 17-Feb-2019
HD Live streaming from Space Station
objects crossing your sky now

ATLAS 5 CENTAUR R/B

Track ATLAS 5 CENTAUR R/B now!


NORAD ID: 39505
Int'l Code: 2014-004B
Perigee: 4,689.1 km
Apogee: 34,662.1 km
Inclination: 25.4 °
Period: 697.2 minutes
Semi major axis: 26046 km
RCS: Unknown
Launch date: January 23, 2014
Source: United States (US)
Launch site: AIR FORCE EASTERN TEST RANGE (AFETR)

Note: This is a ROCKET BODY
aabbcc
Your satellite tracking list
Your tracking list is empty




NASA's NSSDC Master Catalog

Two Line Element Set (TLE):
1 39505U 14004B   19045.35222563 +.00000184 +00000-0 +00000-0 0  9991
2 39505 025.3698 061.5034 5753708 294.4568 017.0466 02.06526783038182
Source of the keplerian elements: AFSPC